Temp
73 73 71 71 70 69 69 69 70 68 69 70 71 72 71 70 69 69 69 69 69 69
71 71 71 71 71 70 70 70 69 69 69 70 71 71 71 69 68 68 68 68 68 68
71 73 71 71 70 70 69 70 69 69 70 70 70 70 69 68 68 68 67 68 68 68
71 72 73 71 70 69 69 68 68 68 69 69 69 69 68 68 68 68 67 68 67 68
73 72 71 70 70 70 68 68 68 68 68 69 69 69 68 68 70 67 66 67 67 68
72 71 71 71 70 70 69 68 68 68 68 67 68 67 67 68 67 67 67 67 66 66
70 71 71 71 71 70 69 69 68 68 67 67 68 68 68 68 66 66 66 66 66 66
70 71 71 70 70 70 69 69 68 68 67 67 68 71 67 67 66 66 65 65 64 63
71 71 70 70 70 69 68 68 67 67 68 66 71 67 65 67 66 66 65 64 63 62
70 70 70 70 70 69 68 67 67 66 67 67 66 63 63 66 66 65 64 64 62 64
69 68 67 67 66 66 67 67 66 66 67 66 67 61 61 64 65 65 65 65 64 63
63 63 64 63 63 64 66 67 66 67 66 65 65 59 59 61 63 64 65 65 65 64
64 64 64 65 64 65 65 67 68 68 68 65 66 58 57 60 62 61 63 63 64 62
62 62 63 65 66 64 63 65 67 70 71 68 65 64 55 55 63 64 62 63 62 62
MSLP
1008.98 1009.33 1010.13 1009.47 1009.91 1010.03 1010.22 1010.39 1010.54 1010.72 1011.03 1011.33 1011.56 1011.76 1012.01 1012.42 1012.58 1013.02 1013.30 1013.40 1013.42 1013.42
1009.14 1009.69 1010.04 1009.29 1009.86 1009.86 1010.01 1010.37 1010.57 1010.80 1011.19 1011.36 1011.44 1011.53 1011.59 1012.07 1012.32 1012.57 1012.78 1012.95 1013.14 1013.27
1009.15 1009.48 1009.41 1009.71 1010.19 1010.02 1009.95 1010.33 1010.79 1011.03 1011.25 1011.37 1011.51 1011.65 1011.96 1012.18 1012.36 1012.48 1012.58 1012.73 1012.88 1012.94
1008.89 1009.18 1009.45 1009.83 1010.05 1010.11 1010.21 1010.55 1011.03 1011.32 1011.46 1011.50 1011.54 1011.73 1011.85 1012.06 1012.21 1012.36 1012.48 1012.60 1012.69 1012.64
1008.44 1008.74 1009.19 1009.50 1009.79 1009.98 1010.35 1010.61 1010.99 1011.35 1011.44 1011.52 1011.70 1011.91 1011.96 1012.11 1012.16 1012.30 1012.44 1012.40 1012.53 1012.58
1008.11 1008.31 1008.45 1008.88 1009.35 1009.69 1010.21 1010.63 1010.99 1011.32 1011.48 1011.41 1011.61 1011.88 1012.08 1012.20 1012.23 1012.18 1012.19 1012.33 1012.44 1012.48
1008.00 1008.42 1008.75 1009.10 1009.40 1009.62 1010.00 1010.49 1010.83 1010.97 1011.18 1011.39 1011.55 1011.80 1011.92 1012.16 1012.38 1012.30 1012.29 1012.24 1012.27 1012.40
1008.58 1008.72 1009.16 1009.54 1009.84 1009.92 1010.01 1010.05 1010.32 1010.73 1011.10 1011.10 1011.37 1011.70 1011.91 1012.03 1012.40 1012.28 1012.16 1012.16 1012.37 1012.40
1008.57 1008.66 1008.98 1009.33 1009.74 1010.23 1010.31 1010.29 1010.38 1010.47 1010.77 1011.08 1011.35 1011.43 1011.42 1011.88 1012.30 1012.34 1012.32 1012.19 1012.51 1012.57
1008.21 1008.45 1008.87 1009.19 1009.68 1010.03 1010.36 1010.56 1010.77 1010.71 1010.52 1010.78 1011.03 1011.17 1011.39 1011.63 1011.76 1012.18 1012.38 1012.13 1012.41 1012.63
1008.51 1009.24 1009.54 1010.10 1010.88 1010.80 1010.27 1010.18 1010.68 1010.84 1010.84 1010.35 1010.41 1010.76 1010.97 1011.33 1011.60 1011.83 1012.12 1012.10 1012.10 1012.08
1008.14 1008.67 1008.74 1008.60 1008.89 1010.92 1010.45 1010.17 1009.94 1010.03 1010.58 1010.72 1010.32 1010.23 1010.52 1011.09 1011.49 1011.64 1011.71 1011.84 1011.68 1011.85
1007.67 1007.81 1008.25 1007.64 1006.47 1006.95 1008.32 1007.97 1008.74 1009.22 1009.29 1009.92 1010.14 1009.87 1009.99 1010.59 1011.13 1011.52 1011.69 1011.59 1011.62 1011.71
1007.74 1007.86 1007.80 1007.62 1007.04 1006.12 1006.32 1006.41 1006.61 1007.66 1008.04 1008.60 1009.15 1009.64 1009.69 1009.97 1010.62 1010.88 1011.32 1011.64 1011.61 1011.62
Wind_Speed
3 1 4 5 4 4 3 3 4 5 5 6 6 5 6 3 4 5 4 6 6 4
9 5 8 4 4 4 4 3 4 3 5 5 5 5 5 4 4 5 5 6 5 4
6 8 3 4 4 5 5 4 4 4 4 5 4 4 5 3 3 5 3 3 4 3
4 5 3 4 4 5 4 5 4 4 4 5 5 5 5 5 4 5 4 3 3 4
7 7 6 6 6 6 6 4 5 4 4 4 3 4 5 5 5 6 5 5 4 3
6 7 8 8 7 7 6 6 5 4 4 4 5 5 4 4 5 6 5 4 4 4
6 6 6 6 7 7 6 6 5 6 6 5 5 5 5 5 4 4 4 5 4 2
3 4 5 5 5 4 6 7 7 6 6 6 4 4 5 5 6 6 5 4 3 2
5 5 7 7 6 5 5 5 6 6 7 6 4 7 9 7 5 5 5 6 3 3
6 5 5 5 5 6 6 4 5 6 7 7 7 8 9 9 6 5 6 6 6 4
6 8 10 11 10 8 3 6 6 6 7 7 7 10 11 9 5 4 6 6 7 7
8 7 5 8 5 9 4 5 6 6 7 7 7 13 12 9 6 5 6 6 6 7
8 9 9 7 14 18 11 8 6 9 8 9 9 13 13 10 4 5 4 4 5 8
6 7 8 9 13 15 17 14 13 13 12 10 9 9 14 14 6 6 4 4 4 4
Wind_Direction
86 64 268 188 194 194 177 190 198 197 166 167 162 166 166 187 179 196 215 213 208 206
104 332 245 170 199 181 162 185 195 173 166 171 176 187 154 174 182 184 199 208 214 214
164 198 196 144 184 163 143 143 155 173 175 194 204 180 160 176 204 181 192 201 212 227
173 175 142 150 151 147 128 141 154 176 190 206 199 184 173 195 192 183 183 194 200 219
162 147 146 149 151 145 154 154 173 200 202 215 224 200 181 197 189 175 178 184 174 200
161 160 163 160 162 155 158 174 189 181 209 182 186 190 198 181 169 171 176 179 176 185
178 170 168 159 160 159 167 174 191 186 181 187 183 181 172 168 184 172 162 161 149 161
202 151 150 150 174 176 175 179 178 172 196 189 193 204 193 187 202 189 167 136 136 163
196 169 172 174 180 187 205 197 180 188 189 197 225 215 191 186 208 231 191 163 170 170
195 181 175 172 168 189 203 206 216 217 192 200 215 223 189 186 185 194 211 178 169 188
76 61 58 39 7 322 247 196 217 229 231 195 207 198 190 182 184 196 219 198 189 176
110 123 147 137 101 289 274 279 222 197 228 218 213 191 194 176 186 204 209 215 189 180
171 173 195 190 186 206 212 209 200 238 212 213 219 202 193 184 171 198 215 219 215 186
183 213 228 238 230 216 221 213 206 215 217 206 200 210 200 187 179 193 197 219 217 212